TimeAKDT,TemperatureF,Dew PointF,Humidity,Sea Level PressureIn,VisibilityMPH,Wind Direction,Wind SpeedMPH,Gust SpeedMPH,PrecipitationIn,Events,Conditions,WindDirDegrees,DateUTC
12:53 AM,28.0,17.1,63,29.77,10.0,NE,6.9,-,N/A,,Clear,40,2012-10-29 08:53:00
1:53 AM,27.0,16.0,63,29.76,10.0,NE,6.9,-,N/A,,Clear,50,2012-10-29 09:53:00
2:53 AM,27.0,16.0,63,29.76,10.0,NE,6.9,-,N/A,,Clear,40,2012-10-29 10:53:00
3:53 AM,27.0,14.0,58,29.76,10.0,NE,8.1,-,N/A,,Clear,40,2012-10-29 11:53:00
4:53 AM,27.0,14.0,58,29.75,10.0,NE,9.2,-,N/A,,Clear,40,2012-10-29 12:53:00
5:53 AM,26.1,12.9,58,29.74,10.0,NE,10.4,18.4,N/A,,Clear,40,2012-10-29 13:53:00
6:53 AM,26.1,12.9,58,29.76,10.0,ENE,6.9,-,N/A,,Clear,60,2012-10-29 14:53:00
7:53 AM,26.1,12.9,58,29.77,10.0,NE,6.9,-,N/A,,Clear,40,2012-10-29 15:53:00
8:53 AM,27.0,12.9,56,29.78,10.0,NE,6.9,-,N/A,,Clear,40,2012-10-29 16:53:00
9:53 AM,27.0,12.9,56,29.79,10.0,Variable,6.9,-,N/A,,Clear,0,2012-10-29 17:53:00
10:53 AM,30.9,14.0,50,29.80,10.0,NNE,12.7,18.4,N/A,,Clear,30,2012-10-29 18:53:00
11:53 AM,33.1,14.0,46,29.81,10.0,NNE,12.7,18.4,N/A,,Clear,20,2012-10-29 19:53:00
12:53 PM,35.1,14.0,42,29.81,10.0,NNE,11.5,-,N/A,,Partly Cloudy,20,2012-10-29 20:53:00
1:53 PM,37.0,12.9,37,29.83,10.0,NNE,5.8,-,N/A,,Clear,30,2012-10-29 21:53:00
2:53 PM,37.0,12.9,37,29.84,10.0,NNE,8.1,-,N/A,,Clear,20,2012-10-29 22:53:00
3:53 PM,36.0,12.0,37,29.86,10.0,NNE,4.6,-,N/A,,Clear,30,2012-10-29 23:53:00
4:53 PM,32.0,12.9,45,29.88,10.0,NE,4.6,-,N/A,,Clear,50,2012-10-30 00:53:00
5:53 PM,30.0,12.0,47,29.90,10.0,NE,5.8,-,N/A,,Clear,40,2012-10-30 01:53:00
6:53 PM,28.9,12.0,49,29.92,10.0,NNE,5.8,-,N/A,,Clear,30,2012-10-30 02:53:00
7:53 PM,28.9,10.9,47,29.93,10.0,ENE,5.8,-,N/A,,Clear,60,2012-10-30 03:53:00
8:53 PM,27.0,12.9,56,29.94,10.0,NNE,6.9,-,N/A,,Clear,30,2012-10-30 04:53:00
9:53 PM,24.1,15.1,69,29.96,10.0,Calm,Calm,-,N/A,,Clear,0,2012-10-30 05:53:00
10:53 PM,24.1,14.0,65,29.98,10.0,Calm,Calm,-,N/A,,Clear,0,2012-10-30 06:53:00
11:53 PM,21.0,15.1,78,30.00,10.0,Calm,Calm,-,N/A,,Clear,0,2012-10-30 07:53:00